Location: General Nathan Twining Observatory
(34.5931°N, 106.8201°W)
Time: 22:07:33
(UTC-06:00)

ADEOS II - Visible Passes

Search period start: 19 June 2018 00:00
Search period end: 29 June 2018 00:00
Orbit: 799 x 801 km, 98.4° (Epoch: 19 June)

Date Brightness Start Highest point End Pass type
(mag) Time Alt. Az. Time Alt. Az. Time Alt. Az.
19 Jun 2.9 03:47:41 10° NNE 03:52:44 46° E 03:56:19 18° SSE visible
20 Jun 3.9 03:21:52 10° NE 03:26:09 25° E 03:29:30 14° SE visible
20 Jun 3.0 05:01:09 10° N 05:05:50 33° WNW 05:10:27 10° SW visible
21 Jun 4.5 02:56:59 10° ENE 02:59:28 13° E 03:01:56 10° ESE visible
21 Jun 2.2 04:34:20 10° N 04:39:30 61° WNW 04:43:38 16° SSW visible
22 Jun 2.2 04:07:49 10° NNE 04:13:05 75° ESE 04:16:50 20° S visible
23 Jun 3.1 03:41:39 10° NNE 03:46:35 40° E 03:50:01 18° SSE visible
23 Jun 3.5 05:22:04 10° NNW 05:25:58 22° WNW 05:29:52 10° WSW visible
24 Jun 4.0 03:15:57 10° NE 03:19:58 22° E 03:23:13 13° SE visible
24 Jun 2.8 04:54:54 10° N 04:59:44 38° WNW 05:04:10 12° SW visible
25 Jun 4.6 02:51:37 10° ENE 02:53:16 11° E 02:54:55 10° ESE visible
25 Jun 2.1 04:28:09 10° N 04:33:23 69° WNW 04:37:21 18° SSW visible
26 Jun 2.4 04:01:43 10° NNE 04:06:57 65° ESE 04:10:32 20° S visible
27 Jun 3.3 03:35:37 10° NNE 03:40:25 35° E 03:43:43 18° SSE visible
27 Jun 3.4 05:15:44 10° NNW 05:19:53 24° WNW 05:24:03 10° WSW visible
28 Jun 4.2 03:10:05 10° NE 03:13:47 19° E 03:16:54 12° SE visible
28 Jun 2.6 04:48:40 10° N 04:53:37 43° WNW 04:57:51 14° SW visible
